GW4546 Weather Reports


time (UTC)temp
C
wind
direction
speed
KPH
gust
KPH
rain 1hr
cm
rain 24hr
cm
rain mn
cm
humidity
%
barometer
mb
20260504081829 5 167 0.0 0.0 0.00 0.00 0.00 98 1019.1
20260504081326 5 167 0.0 0.0 0.00 0.00 0.00 98 1019.0
20260504080821 5 167 0.0 0.0 0.00 0.00 0.00 98 1019.1
20260504080319 5 167 0.0 0.0 0.00 0.00 0.00 98 1019.2
20260504070246 5 165 0.0 0.0 0.00 0.00 0.00 96 1019.1
20260504060207 6 170 0.0 0.0 0.00 0.00 0.00 95 1019.8
20260504050635 6 155 0.0 0.0 0.00 0.00 0.00 96 1020.0
20260504050132 6 170 0.0 0.0 0.00 0.00 0.00 96 1020.1
20260504045629 6 170 0.0 0.0 0.00 0.00 0.00 96 1020.2
20260504045124 6 175 0.0 0.0 0.00 0.00 0.00 96 1020.1
20260504044622 6 174 0.0 0.0 0.00 0.00 0.00 95 1020.1
20260504044118 6 174 0.0 0.0 0.00 0.00 0.00 95 1020.1
20260504043615 6 174 0.0 0.0 0.00 0.00 0.00 95 1020.1
20260504043113 6 174 0.0 0.0 0.00 0.00 0.00 95 1020.0
20260504042610 6 174 0.0 0.0 0.00 0.00 0.00 95 1020.3
20260504042107 6 163 0.0 0.0 0.00 0.00 0.00 94 1020.3
20260504041602 6 163 0.0 0.0 0.00 0.00 0.00 93 1020.4
20260504041059 7 163 0.0 0.0 0.00 0.00 0.00 93 1020.0
20260504040556 7 163 0.0 0.0 0.00 0.00 0.00 93 1020.1
20260504040053 7 163 0.0 0.0 0.00 0.00 0.00 92 1020.2
20260504035549 7 163 0.0 0.0 0.00 0.00 0.00 92 1020.3
20260504035046 7 161 0.0 0.0 0.00 0.00 0.00 91 1020.3
20260504034544 7 158 0.0 0.0 0.00 0.00 0.00 91 1020.2
20260504034040 7 172 0.0 0.0 0.00 0.00 0.00 90 1020.3
20260504033538 7 171 0.0 0.0 0.00 0.00 0.00 90 1020.2
20260504033035 7 171 0.0 0.0 0.00 0.00 0.00 90 1020.2
20260504032532 7 172 0.0 0.0 0.00 0.00 0.00 91 1020.2
20260504032029 7 172 0.0 0.0 0.00 0.00 0.00 88 1020.3
20260504031526 7 172 0.0 0.0 0.00 0.00 0.00 88 1020.4
20260504031022 8 172 0.0 0.0 0.00 0.00 0.00 87 1020.6
20260504030520 8 171 0.0 0.0 0.00 0.00 0.00 87 1020.5
20260504030016 8 168 0.0 0.0 0.00 0.00 0.00 86 1020.5
20260504025513 8 168 0.0 0.0 0.00 0.00 0.00 85 1020.4
20260504025010 8 169 0.0 0.0 0.00 0.00 0.00 85 1020.5
20260504024507 8 153 0.0 0.0 0.00 0.00 0.00 84 1020.5
20260504024004 9 167 0.0 0.0 0.00 0.00 0.00 83 1020.3
20260504023500 9 161 0.0 0.0 0.00 0.00 0.00 84 1020.4
20260504022956 9 172 0.0 0.0 0.00 0.00 0.00 84 1020.4
20260504022452 9 166 0.0 0.0 0.00 0.00 0.00 83 1020.2
20260504021949 10 141 0.0 0.0 0.00 0.00 0.00 82 1020.2
20260504021446 9 146 1.6 1.6 0.00 0.00 0.00 84 1020.1
20260504020943 8 171 0.0 0.0 0.00 0.00 0.00 84 1020.1
20260504020440 9 171 0.0 0.0 0.00 0.00 0.00 83 1020.1
20260504015937 9 171 0.0 0.0 0.00 0.00 0.00 82 1020.1
20260504015433 10 171 0.0 0.0 0.00 0.00 0.00 80 1020.1
20260504014929 10 171 0.0 0.0 0.00 0.00 0.00 79 1020.2
20260504014425 10 171 0.0 0.0 0.00 0.00 0.00 79 1020.1
20260504013922 10 175 0.0 0.0 0.00 0.00 0.00 78 1020.0
20260504013421 10 167 0.0 0.0 0.00 0.00 0.00 79 1020.1
20260504012916 10 178 0.0 0.0 0.00 0.00 0.00 79 1020.0
20260504012414 10 178 0.0 0.0 0.00 0.00 0.00 77 1019.9
20260504011911 11 178 0.0 0.0 0.00 0.00 0.00 76 1019.9
20260504011408 11 178 0.0 0.0 0.00 0.00 0.00 75 1019.8
20260504010904 11 178 0.0 0.0 0.00 0.00 0.00 73 1019.8
20260504010400 11 178 0.0 0.0 0.00 0.00 0.00 72 1019.7
20260504005856 12 178 0.0 0.0 0.00 0.00 0.00 71 1020.0
20260504005353 12 178 0.0 0.0 0.00 0.00 0.00 70 1019.8
20260504004851 12 178 0.0 0.0 0.00 0.00 0.00 70 1019.6
20260504004348 12 177 0.0 0.0 0.00 0.00 0.00 69 1019.7
20260504003845 13 177 0.0 0.0 0.00 0.00 0.00 67 1019.4
20260504003342 13 177 0.0 0.0 0.00 0.00 0.00 66 1019.6
20260504002838 14 177 0.0 0.0 0.00 0.00 0.00 65 1019.5
20260504002335 15 177 0.0 0.0 0.00 0.00 0.00 64 1019.4
20260504001833 15 176 0.0 0.0 0.00 0.00 0.00 61 1019.6
20260504001330 15 175 0.0 0.0 0.00 0.00 0.00 60 1019.6
20260504000827 16 170 0.0 0.0 0.00 0.00 0.00 54 1019.7
20260504000324 17 180 0.0 0.0 0.00 0.00 0.00 54 1019.8
20260503235821 17 172 0.0 0.0 0.00 0.00 0.00 48 1019.7
20260503235319 18 173 0.0 0.0 0.00 0.00 0.00 46 1019.7
20260503234816 18 188 1.6 1.6 0.00 0.00 0.00 44 1019.7
20260503234314 18 201 1.6 3.2 0.00 0.00 0.00 43 1019.6
20260503233811 19 193 3.2 3.2 0.00 0.00 0.00 41 1019.6
20260503233307 20 179 0.0 1.6 0.00 0.00 0.00 41 1019.7
20260503232804 20 187 0.0 1.6 0.00 0.00 0.00 42 1020.0
20260503232301 20 170 0.0 0.0 0.00 0.00 0.00 42 1020.1
20260503231759 20 238 3.2 4.8 0.00 0.00 0.00 43 1020.0
20260503231256 20 253 4.8 4.8 0.00 0.00 0.00 40 1020.2
20260503230756 20 210 4.8 4.8 0.00 0.00 0.00 40 1020.1
20260503230254 20 178 0.0 0.0 0.00 0.00 0.00 41 1020.3
20260503225752 20 236 4.8 6.4 0.00 0.00 0.00 40 1020.2
20260503225252 20 183 3.2 3.2 0.00 0.00 0.00 39 1020.4
20260503224748 20 24 4.8 9.7 0.00 0.00 0.00 41 1020.4
20260503224246 20 227 3.2 4.8 0.00 0.00 0.00 40 1020.4
20260503223744 20 231 4.8 6.4 0.00 0.00 0.00 40 1020.5
20260503223241 20 204 4.8 6.4 0.00 0.00 0.00 41 1020.5
20260503222737 20 240 6.4 6.4 0.00 0.00 0.00 39 1020.4
20260503222235 20 203 1.6 4.8 0.00 0.00 0.00 43 1020.5
20260503221733 21 189 1.6 3.2 0.00 0.00 0.00 39 1020.6
20260503221231 20 178 1.6 1.6 0.00 0.00 0.00 43 1020.6
20260503220727 21 192 4.8 4.8 0.00 0.00 0.00 39 1020.5
20260503220224 20 149 3.2 3.2 0.00 0.00 0.00 39 1020.4
20260503215721 21 252 3.2 4.8 0.00 0.00 0.00 42 1020.4
20260503215218 21 186 4.8 4.8 0.00 0.00 0.00 41 1020.4
20260503214716 21 214 6.4 6.4 0.00 0.00 0.00 38 1020.6
20260503214212 21 166 1.6 1.6 0.00 0.00 0.00 42 1020.6
20260503213711 20 170 3.2 4.8 0.00 0.00 0.00 48 1020.8
20260503213208 20 187 3.2 4.8 0.00 0.00 0.00 40 1020.7
20260503212705 20 266 6.4 9.7 0.00 0.00 0.00 42 1020.8
20260503212203 20 211 3.2 3.2 0.00 0.00 0.00 40 1020.9
20260503211700 21 186 4.8 4.8 0.00 0.00 0.00 40 1020.9
20260503211155 20 46 1.6 3.2 0.00 0.00 0.00 38 1021.1
20260503210651 20 181 1.6 3.2 0.00 0.00 0.00 41 1021.1
20260503210148 20 251 8.0 11.3 0.00 0.00 0.00 39 1021.1
20260503205644 20 172 0.0 0.0 0.00 0.00 0.00 41 1021.2
20260503205140 20 206 3.2 3.2 0.00 0.00 0.00 45 1021.1
20260503204637 20 218 4.8 6.4 0.00 0.00 0.00 38 1021.4
20260503204135 20 269 3.2 4.8 0.00 0.00 0.00 37 1021.6
20260503203631 20 256 0.0 0.0 0.00 0.00 0.00 43 1021.6
20260503203129 20 253 6.4 6.4 0.00 0.00 0.00 38 1021.9
20260503202626 19 177 3.2 4.8 0.00 0.00 0.00 39 1021.8
20260503202124 20 259 9.7 12.9 0.00 0.00 0.00 40 1021.8
20260503201622 20 214 0.0 1.6 0.00 0.00 0.00 42 1022.1
20260503201119 20 180 3.2 4.8 0.00 0.00 0.00 45 1022.2
20260503200615 20 216 4.8 4.8 0.00 0.00 0.00 38 1022.3
20260503200112 20 198 3.2 3.2 0.00 0.00 0.00 41 1022.3
20260503195609 20 192 1.6 1.6 0.00 0.00 0.00 44 1022.4
20260503195106 20 213 8.0 11.3 0.00 0.00 0.00 40 1022.6
20260503194603 19 187 1.6 1.6 0.00 0.00 0.00 41 1022.7
20260503194058 19 195 3.2 4.8 0.00 0.00 0.00 39 1022.7
20260503193555 19 212 8.0 9.7 0.00 0.00 0.00 38 1022.8
20260503193050 18 180 4.8 4.8 0.00 0.00 0.00 39 1023.1
20260503192546 19 146 4.8 4.8 0.00 0.00 0.00 44 1022.9
20260503192042 18 218 3.2 4.8 0.00 0.00 0.00 40 1022.9
20260503191539 18 206 8.0 11.3 0.00 0.00 0.00 41 1022.9
20260503191036 19 224 9.7 12.9 0.00 0.00 0.00 41 1023.2
20260503190533 18 200 4.8 4.8 0.00 0.00 0.00 41 1023.2
20260503190030 18 175 0.0 1.6 0.00 0.00 0.00 42 1023.1
20260503185527 18 185 3.2 6.4 0.00 0.00 0.00 41 1023.1
20260503185026 19 219 4.8 6.4 0.00 0.00 0.00 37 1023.2
20260503184523 19 179 1.6 1.6 0.00 0.00 0.00 47 1023.3
20260503184019 18 188 1.6 1.6 0.00 0.00 0.00 42 1023.4
20260503183516 17 301 9.7 12.9 0.00 0.00 0.00 42 1023.5
20260503183013 17 215 3.2 3.2 0.00 0.00 0.00 42 1023.5
20260503182512 18 258 4.8 9.7 0.00 0.00 0.00 44 1023.6
20260503182009 18 258 8.0 12.9 0.00 0.00 0.00 45 1023.5
20260503181506 18 221 4.8 6.4 0.00 0.00 0.00 48 1023.7
20260503181002 18 224 4.8 4.8 0.00 0.00 0.00 43 1023.8
20260503180500 17 213 1.6 1.6 0.00 0.00 0.00 47 1023.7
20260503175956 17 5 6.4 6.4 0.00 0.00 0.00 41 1023.9
20260503175455 18 214 8.0 9.7 0.00 0.00 0.00 44 1024.1
20260503174950 17 232 0.0 0.0 0.00 0.00 0.00 46 1024.1
20260503174449 17 189 1.6 3.2 0.00 0.00 0.00 52 1024.1
20260503173943 17 278 6.4 11.3 0.00 0.00 0.00 45 1024.0
20260503173439 17 183 1.6 1.6 0.00 0.00 0.00 49 1024.2
20260503172936 17 204 4.8 9.7 0.00 0.00 0.00 42 1024.3
20260503172434 18 177 4.8 6.4 0.00 0.00 0.00 44 1024.2
20260503171930 16 187 1.6 3.2 0.00 0.00 0.00 41 1024.4
20260503171427 17 180 3.2 4.8 0.00 0.00 0.00 45 1024.3
20260503170924 17 180 1.6 1.6 0.00 0.00 0.00 41 1024.5
20260503170420 17 196 0.0 1.6 0.00 0.00 0.00 40 1024.6
20260503150813 15 6 4.8 4.8 0.00 0.00 0.00 46 1025.4
20260503150309 15 182 1.6 1.6 0.00 0.00 0.00 52 1025.4
20260503140233 13 171 0.0 0.0 0.00 0.00 0.00 75 1025.2
20260503131203 10 166 0.0 0.0 0.00 0.00 0.00 89 1025.2
20260503130700 9 157 0.0 0.0 0.00 0.00 0.00 87 1025.3
20260503130158 8 171 0.0 0.0 0.00 0.00 0.00 91 1025.2
20260503120123 3 166 0.0 0.0 0.00 0.00 0.00 99 1024.8
20260503110550 2 164 0.0 0.0 0.00 0.00 0.00 99 1024.2
20260503090437 2 176 0.0 0.0 0.00 0.00 0.00 99 1023.6